Paganella, Italy

12:32 AM CEST on March 27, 2017 (GMT +0200)
Paganella

Weather History for LIVP - January, 2014

Change the Weather History Date:

Sunday, January 26, 2014

  Actual Average Record
Temperature  
Mean Temperature 17 °F -  
Max Temperature 19 °F 28 °F 45 °F (2016)
Min Temperature 15 °F 19 °F 0 °F (2005)
Degree Days  
Heating Degree Days 48    
Moisture  
Dew Point 10 °F    
Average Humidity 65    
Maximum Humidity 100    
Minimum Humidity 28    
Precipitation  
Precipitation 0.00 in 0.03 in - ()
Sea Level Pressure  
Sea Level Pressure 29.57 in    
Wind  
Wind Speed 9 mph ()    
Max Wind Speed 23 mph    
Max Gust Speed -    
Visibility 7.6 miles    
Events Snow    
Averages and records for this station are not official NWS values.
T = Trace of Precipitation, MM = Missing Value Source: Averaged Metar Reports

Daily Weather History Graph

Daily Weather History Graph

Search for Another Location

Airport or City:

Trip Planner

Search our weather history database for the weather conditions in past years. The results will help you decide how hot, cold, wet, or windy it might be!

Date:

Astronomy

Jan. 26, 2014 Rise Set
Actual Time 7:45 AM CET 5:11 PM CET
Civil Twilight 7:12 AM CET 5:44 PM CET
Nautical Twilight 6:36 AM CET 6:20 PM CET
Astronomical Twilight 6:01 AM CET 6:56 PM CET
Moon 3:05 AM CET 12:45 PM CET
Length of Visible Light 10h 31m
Length of Day
9h 26m
Waning Crescent, 26% of the Moon is Illuminated
Jan 26
Waning Crescent
Jan 30
New
Feb 6
First Quarter
Feb 15
Full
Feb 22
Last Quarter

Hourly Weather History & Observations

Time (CET) Temp. Windchill Dew Point Humidity Pressure Visibility Wind Dir Wind Speed Gust Speed Precip Events Conditions
12:00 AM 21 °F - 2 °F 28%  in 37 mi SSW 4.6 mph - -   Clear
12:55 AM 21.2 °F 12.6 °F 3.2 °F 46% 29.65 in - South 6.9 mph - N/A   Clear
1:00 AM 21 °F - 3 °F 30%  in 25 mi South 6.9 mph - -   Scattered Clouds
1:55 AM 23.0 °F 14.7 °F 5.0 °F 46% 29.59 in - SSW 6.9 mph - N/A   Clear
2:00 AM 22 °F - 6 °F 34%  in 25 mi SSW 6.9 mph - -   Scattered Clouds
2:55 AM 21.2 °F 10.9 °F 5.0 °F 50% 29.56 in - SSW 9.2 mph - N/A   Clear
3:00 AM 22 °F - 6 °F 35%  in 19 mi SSW 9.2 mph - -   Clear
3:55 AM 21.2 °F 14.9 °F 8.6 °F 58% 29.56 in - SSW 4.6 mph - N/A   Clear
4:00 AM 22 °F - 9 °F 42%  in 12 mi SSW 4.6 mph - -   Scattered Clouds
4:55 AM 23.0 °F 17.0 °F 19.4 °F 86% 29.56 in 6.2 mi WNW 4.6 mph - N/A   Partly Cloudy
5:00 AM 22 °F - 19 °F 83%  in 6 mi WNW 4.6 mph - -   Scattered Clouds
5:55 AM 17.6 °F 2.7 °F 14.0 °F 86% 29.53 in 6.2 mi North 16.1 mph - N/A   Scattered Clouds
6:00 AM 18 °F - 14 °F 79%  in 6 mi North 16.1 mph - -   Partly Cloudy
6:55 AM 17.6 °F 0.1 °F 17.6 °F 100% 29.53 in 6.2 mi North 23.0 mph - N/A Snow Blowing Snow
7:00 AM 17 °F - 17 °F 98%  in 25 mi North 23.0 mph - - Snow Blowing Snow
7:55 AM 15.8 °F -2.3 °F 10.4 °F 79% 29.53 in 6.2 mi WNW 23.0 mph - N/A Snow Blowing Snow
8:00 AM 15 °F - 11 °F 78%  in 25 mi WNW 23.0 mph - - Snow Blowing Snow
8:55 AM 15.8 °F -0.2 °F 8.6 °F 73% 29.56 in 6.2 mi NW 17.3 mph - N/A Snow Light Low Drifting Snow
9:00 AM 15 °F - 9 °F 68%  in 37 mi NW 17.3 mph - - Snow Low Drifting Snow
9:55 AM 15.8 °F 2.7 °F 8.6 °F 73% 29.56 in 6.2 mi WNW 11.5 mph - N/A Snow Light Low Drifting Snow
10:00 AM 15 °F - 9 °F 66%  in 31 mi WNW 11.5 mph - - Snow Low Drifting Snow
10:55 AM 15.8 °F 2.7 °F 8.6 °F 73% 29.59 in 6.2 mi WNW 11.5 mph - N/A Snow Light Low Drifting Snow
11:00 AM 16 °F - 9 °F 63%  in 31 mi WNW 11.5 mph - - Snow Low Drifting Snow
11:55 AM 15.8 °F 2.7 °F 8.6 °F 73% 29.59 in 6.2 mi NW 11.5 mph - N/A Snow Light Low Drifting Snow
12:00 PM 17 °F - 8 °F 57%  in 31 mi NW 11.5 mph - - Snow Low Drifting Snow
12:55 PM 17.6 °F 5.0 °F 8.6 °F 68% 29.59 in 6.2 mi NW 11.5 mph - N/A   Partly Cloudy
1:00 PM 17 °F - 9 °F 58%  in 31 mi NW 11.5 mph - -   Partly Cloudy
1:55 PM 17.6 °F 5.7 °F 8.6 °F 68% 29.59 in - NW 10.4 mph - N/A   Clear
2:00 PM 17 °F - 9 °F 58%  in 31 mi NW 10.4 mph - -  
2:55 PM 17.6 °F 5.0 °F 10.4 °F 73% 29.59 in - NW 11.5 mph - N/A   Clear
3:00 PM 17 °F - 11 °F 69%  in 31 mi NW 11.5 mph - -  
3:55 PM 17.6 °F 8.2 °F 10.4 °F 73% 29.59 in - North 6.9 mph - N/A   Clear
4:00 PM 18 °F - 11 °F 63%  in 31 mi North 6.9 mph - -  
4:55 PM 17.6 °F - 10.4 °F 73% 29.59 in - NNW 2.3 mph - N/A   Clear
5:00 PM 18 °F - 10 °F 60%  in 31 mi NNW 2.3 mph - -  
5:55 PM 17.6 °F 9.3 °F 8.6 °F 68% 29.59 in - North 5.8 mph - N/A   Clear
6:00 PM 18 °F - 9 °F 55%  in 31 mi North 5.8 mph - -  
6:55 PM 17.6 °F 7.3 °F 10.4 °F 73% 29.59 in - North 8.1 mph - N/A   Clear
7:00 PM 18 °F - 10 °F 59%  in 37 mi North 8.1 mph - -   Clear
7:55 PM 17.6 °F 6.4 °F 8.6 °F 68% 29.59 in - SW 9.2 mph - N/A   Clear
8:00 PM 18 °F - 9 °F 55%  in 37 mi SW 9.2 mph - -   Scattered Clouds
8:55 PM 17.6 °F 5.0 °F 10.4 °F 73% 29.59 in - WSW 11.5 mph - N/A   Clear
9:00 PM 18 °F - 10 °F 61%  in 31 mi WSW 11.5 mph - -   Partly Cloudy
9:55 PM 19.4 °F 6.0 °F 10.4 °F 68% 29.56 in - SSW 13.8 mph - N/A   Clear
10:00 PM 19 °F - 11 °F 60%  in 31 mi SSW 13.8 mph - -   Mostly Cloudy
10:55 PM 19.4 °F 7.2 °F 12.2 °F 74% 29.53 in - SSW 11.5 mph - N/A   Clear
11:00 PM 19 °F - 12 °F 63%  in 31 mi SSW 11.5 mph - -   Mostly Cloudy
11:55 PM 19.4 °F 3.2 °F 12.2 °F 74% 29.50 in - SSW 20.7 mph - N/A   Clear